Regional Weather Roundup
Issued by NWS Charleston, WV

Home | Current Version | Previous Version | Graphics & Text | Print | Product List | Glossary On
Versions: 1 2 3 4 5 6 7 8 9 10 11 12 13 14 15 16 17 18 19 20 21 22 23 24 25 26 27 28 29 30 31 32 33 34 35 36 37 38 39 40 41 42 43 44 45 46 47 48 49 50
000
ASUS41 KRLX 161410
RWRRLX
West Virginia Regional Weather Roundup
National Weather Service Charleston WV
900 AM EST SAT DEC 16 2017

Note: "fair" indicates few or no clouds below 12,000 feet with no
significant weather and/or obstructions to visibility.

WVZ003-161500-
Northern Panhandle of West Virginia

CITY           SKY/WX    TMP DP  RH WIND       PRES   REMARKS
WHEELING       CLOUDY    31  22  69 SW14G21   30.03S
$$

WVZ009-161500-
Northwest West Virginia

CITY           SKY/WX    TMP DP  RH WIND       PRES   REMARKS
PARKERSBURG    CLOUDY    35  23  61 SW12      30.12S
$$

WVZ006-161500-
Western West Virginia

CITY           SKY/WX    TMP DP  RH WIND       PRES   REMARKS
HUNTINGTON     SUNNY     33  21  61 S8        30.14F
$$

WVZ015-161500-
West Central West Virginia

CITY           SKY/WX    TMP DP  RH WIND       PRES   REMARKS
CHARLESTON     MOSUNNY   36  22  56 SW9       30.15F
$$

WVZ022-031-161500-
North Central West Virginia

CITY           SKY/WX    TMP DP  RH WIND       PRES   REMARKS
CLARKSBURG     CLOUDY    34  22  61 S9        30.09F
MORGANTOWN     CLOUDY    32  21  64 SW7       30.08F
$$

WVZ025-035-042-045-161500-
Southern West Virginia

CITY           SKY/WX    TMP DP  RH WIND       PRES   REMARKS
BECKLEY        MOSUNNY   27  19  72 SW7       30.12R
LOGAN            N/A     32  23  69 CALM      30.14F
BLUEFIELD      SUNNY     25  18  74 SW9       30.13R
LEWISBURG      MOSUNNY   29  21  71 SW5       30.12S
$$

WVZ047-161500-
Northern Mountains of West Virginia

CITY           SKY/WX    TMP DP  RH WIND       PRES   REMARKS
ELKINS         CLOUDY    31  19  61 SW8       30.08F
$$

WVZ052-161500-
Eastern Panhandle of West Virginia

CITY           SKY/WX    TMP DP  RH WIND       PRES   REMARKS
MARTINSBURG    SUNNY     33  18  53 S5        30.09S
PETERSBURG     SUNNY     37  20  51 SW8G22    30.07F
$$



USA.gov is the U.S. government's official web portal to all federal, state and local government web resources and services.